Richmond Hanover County, VA

3:32 PM EST on December 17, 2017 (GMT -0500)
Hanover County Municipal

Weather History for KOFP - June, 2014

Change the Weather History Date:

Friday, June 6, 2014

  Actual Average Record
Temperature  
Mean Temperature 68 °F -  
Max Temperature 81 °F 81 °F 93 °F (2002)
Min Temperature 55 °F 58 °F 43 °F (1954)
Cooling Degree Days 2    
Growing Degree Days 18 (Base 50)    
Moisture  
Dew Point 54 °F    
Average Humidity 67    
Maximum Humidity 93    
Minimum Humidity 33    
Precipitation  
Precipitation 0.00 in - - ()
Sea Level Pressure  
Sea Level Pressure 29.95 in    
Wind  
Wind Speed 2 mph (NNW)    
Max Wind Speed 8 mph    
Max Gust Speed -    
Visibility 10 miles    
Events      
Averages and records for this station are not official NWS values.
T = Trace of Precipitation, MM = Missing Value Source: NWS Daily Summary

Daily Weather History Graph

Daily Weather History Graph

Search for Another Location

Airport or City:

Trip Planner

Search our weather history database for the weather conditions in past years. The results will help you decide how hot, cold, wet, or windy it might be!

Date:

Astronomy

Jun. 06, 2014 Rise Set
Actual Time 5:48 AM EDT 8:28 PM EDT
Civil Twilight 5:17 AM EDT 8:59 PM EDT
Nautical Twilight 4:38 AM EDT 9:38 PM EDT
Astronomical Twilight 3:55 AM EDT 10:22 PM EDT
Moon 1:53 PM EDT (6/6) 1:31 AM EDT (6/6)
Length of Visible Light 15h 42m
Length of Day
14h 40m
First Quarter, 58% of the Moon is Illuminated
Jun 6
First Quarter
Jun 13
Full
Jun 19
Last Quarter
Jun 27
New
Jul 5
First Quarter

Hourly Weather History & Observations

Time (EDT) Temp. Dew Point Humidity Pressure Visibility Wind Dir Wind Speed Gust Speed Precip Events Conditions
12:54 AM 61.0 °F 59.0 °F 93% 29.89 in 10.0 mi Calm Calm - N/A   Clear
1:54 AM 60.1 °F 57.9 °F 93% 29.89 in 9.0 mi Calm Calm - N/A   Clear
2:54 AM 57.9 °F 55.9 °F 93% 29.90 in 10.0 mi Calm Calm - N/A   Clear
3:54 AM 57.0 °F 55.0 °F 93% 29.91 in 10.0 mi Calm Calm - N/A   Clear
4:54 AM 55.9 °F 54.0 °F 93% 29.91 in 8.0 mi Calm Calm - N/A   Clear
5:54 AM 55.9 °F 54.0 °F 93% 29.93 in 6.0 mi Calm Calm - N/A   Clear
6:54 AM 57.0 °F 55.0 °F 93% 29.95 in 7.0 mi Calm Calm - N/A   Scattered Clouds
7:54 AM 64.9 °F 57.0 °F 75% 29.96 in 8.0 mi Variable 3.5 mph - N/A   Scattered Clouds
8:54 AM 69.1 °F 54.0 °F 58% 29.97 in 10.0 mi Calm Calm - N/A   Partly Cloudy
9:54 AM 71.1 °F 52.0 °F 51% 29.98 in 10.0 mi NW 5.8 mph - N/A   Clear
11:54 AM 75.0 °F 48.0 °F 38% 29.96 in 10.0 mi Variable 5.8 mph - N/A   Clear
12:54 PM 77.0 °F 50.0 °F 39% 29.96 in 10.0 mi Variable 3.5 mph - N/A   Clear
1:54 PM 78.1 °F 46.9 °F 33% 29.95 in 10.0 mi NW 4.6 mph - N/A   Clear
2:54 PM 79.0 °F 48.0 °F 34% 29.94 in 10.0 mi NNW 8.1 mph - N/A   Clear
3:54 PM 80.1 °F 48.9 °F 34% 29.94 in 10.0 mi NW 8.1 mph - N/A   Clear
5:54 PM 80.1 °F 51.1 °F 36% 29.94 in 10.0 mi WNW 4.6 mph - N/A   Clear
6:54 PM 79.0 °F 54.0 °F 42% 29.95 in 10.0 mi NNE 3.5 mph - N/A   Clear
7:54 PM 72.0 °F 57.0 °F 59% 29.95 in 10.0 mi Calm Calm - N/A   Clear
8:54 PM 66.0 °F 57.9 °F 75% 29.96 in 10.0 mi NE 3.5 mph - N/A   Clear
9:54 PM 63.0 °F 57.0 °F 81% 29.99 in 10.0 mi Calm Calm - N/A   Clear
10:54 PM 61.0 °F 55.0 °F 81% 30.00 in 10.0 mi Calm Calm - N/A   Clear
11:54 PM 59.0 °F 55.9 °F 90% 30.00 in 10.0 mi Calm Calm - N/A   Clear